When you browse on this site, cookies collect data to enhance your experience and personalize the content and advertising you see.
Visit our Privacy Policy to learn more. By continuing to use the site, you agree to this use of cookies and data.
  • In Sweden
  • List of Countries
  • For 7 days
  • Water Temperature
  • Satellite Maps
  • Weather Map
  • Weather Widgets
  • user-avatar
    Login

    Hourly Weather Spiridenki

    Today, 22 May, Wednesday

    Time Temperature Precipitation Wind Pressure Humidity
    00:00 +15°C° 0 mm 2 mps 746 mmHg 90%
    01:00 +15°C° 0 mm 2 mps 745 mmHg 93%
    02:00 +14°C° 0 mm 1 mps 745 mmHg 96%
    03:00 +14°C° 0 mm 1 mps 745 mmHg 95%
    04:00 +14°C° 0 mm 1 mps 745 mmHg 94%
    05:00 +15°C° 0 mm 1 mps 744 mmHg 94%
    06:00 +18°C° 0 mm 1 mps 744 mmHg 86%
    07:00 +19°C° 0 mm 1 mps 744 mmHg 78%
    08:00 +21°C° 0 mm 1 mps 744 mmHg 71%
    09:00 +21°C° 0.4 mm 2 mps 744 mmHg 68%
    10:00 +23°C° 0.4 mm 2 mps 744 mmHg 65%
    11:00 +24°C° 0.4 mm 2 mps 743 mmHg 62%
    12:00 +25°C° 0.2 mm 2 mps 743 mmHg 61%
    13:00 +25°C° 0.2 mm 2 mps 743 mmHg 60%
    14:00 +25°C° 0.2 mm 1 mps 742 mmHg 59%
    15:00 +25°C° 0.3 mm 1 mps 742 mmHg 61%
    16:00 +25°C° 0.3 mm 1 mps 742 mmHg 62%
    17:00 +23°C° 0.3 mm 0 mps 742 mmHg 63%
    18:00 +21°C° 0.5 mm 0 mps 742 mmHg 71%
    19:00 +19°C° 0.5 mm 0 mps 742 mmHg 79%
    20:00 +17°C° 0.5 mm 0 mps 741 mmHg 86%
    21:00 +17°C° 1.1 mm 0 mps 741 mmHg 89%
    22:00 +16°C° 1.1 mm 0 mps 741 mmHg 91%
    23:00 +15°C° 1.1 mm 0 mps 741 mmHg 93%

    Tomorrow, 23 May, Thursday

    Time Temperature Precipitation Wind Pressure Humidity
    00:00 +15°C° 0 mm 0 mps 741 mmHg 94%
    01:00 +16°C° 0 mm 1 mps 741 mmHg 95%
    02:00 +15°C° 0 mm 1 mps 741 mmHg 95%
    03:00 +15°C° 0 mm 1 mps 741 mmHg 96%
    04:00 +15°C° 0 mm 1 mps 741 mmHg 96%
    05:00 +16°C° 0 mm 1 mps 741 mmHg 96%
    06:00 +18°C° 0 mm 1 mps 741 mmHg 91%
    07:00 +20°C° 0 mm 1 mps 741 mmHg 85%
    08:00 +22°C° 0 mm 1 mps 741 mmHg 80%
    09:00 +22°C° 0.7 mm 1 mps 741 mmHg 77%
    10:00 +23°C° 0.7 mm 2 mps 741 mmHg 73%
    11:00 +24°C° 0.7 mm 2 mps 741 mmHg 69%
    12:00 +25°C° 0.3 mm 2 mps 741 mmHg 65%
    13:00 +25°C° 0.3 mm 2 mps 740 mmHg 61%
    14:00 +26°C° 0.3 mm 2 mps 740 mmHg 57%
    15:00 +26°C° 0.2 mm 2 mps 740 mmHg 59%
    16:00 +25°C° 0.2 mm 2 mps 740 mmHg 62%
    17:00 +25°C° 0.2 mm 2 mps 740 mmHg 65%
    18:00 +23°C° 0.5 mm 2 mps 741 mmHg 74%
    19:00 +20°C° 0.5 mm 2 mps 741 mmHg 83%
    20:00 +18°C° 0.5 mm 2 mps 741 mmHg 92%
    21:00 +17°C° 0 mm 2 mps 741 mmHg 94%
    22:00 +16°C° 0 mm 2 mps 741 mmHg 95%
    23:00 +15°C° 0 mm 2 mps 742 mmHg 97%

    Day after tomorrow, 24 May, Friday

    Time Temperature Precipitation Wind Pressure Humidity
    00:00 +15°C° 0 mm 2 mps 742 mmHg 98%
    01:00 +15°C° 0 mm 2 mps 742 mmHg 98%
    02:00 +14°C° 0 mm 2 mps 742 mmHg 98%
    03:00 +14°C° 0 mm 2 mps 743 mmHg 98%
    04:00 +14°C° 0 mm 2 mps 743 mmHg 97%
    05:00 +14°C° 0 mm 2 mps 743 mmHg 96%
    06:00 +14°C° 0 mm 2 mps 743 mmHg 95%
    07:00 +14°C° 0 mm 2 mps 743 mmHg 93%
    08:00 +15°C° 0 mm 2 mps 743 mmHg 92%
    09:00 +16°C° 0 mm 2 mps 743 mmHg 88%
    10:00 +16°C° 0 mm 2 mps 743 mmHg 84%
    11:00 +17°C° 0 mm 2 mps 743 mmHg 80%
    12:00 +19°C° 0 mm 2 mps 743 mmHg 75%
    13:00 +20°C° 0 mm 2 mps 743 mmHg 69%
    14:00 +21°C° 0 mm 2 mps 743 mmHg 63%
    15:00 +21°C° 0 mm 2 mps 743 mmHg 65%
    16:00 +21°C° 0 mm 2 mps 743 mmHg 67%
    17:00 +21°C° 0 mm 2 mps 742 mmHg 69%
    18:00 +20°C° 0.1 mm 2 mps 742 mmHg 76%
    19:00 +18°C° 0.1 mm 2 mps 742 mmHg 82%
    20:00 +17°C° 0.1 mm 2 mps 742 mmHg 89%
    21:00 +16°C° 0 mm 1 mps 742 mmHg 91%
    22:00 +16°C° 0 mm 1 mps 742 mmHg 92%
    23:00 +15°C° 0 mm 1 mps 742 mmHg 93%

    25 May, Saturday

    Time Temperature Precipitation Wind Pressure Humidity
    00:00 +15°C° 0 mm 1 mps 742 mmHg 94%
    01:00 +14°C° 0 mm 1 mps 741 mmHg 95%
    02:00 +14°C° 0 mm 1 mps 741 mmHg 96%
    03:00 +14°C° 0 mm 1 mps 741 mmHg 95%
    04:00 +14°C° 0 mm 1 mps 741 mmHg 95%
    05:00 +14°C° 0 mm 0 mps 741 mmHg 94%
    06:00 +16°C° 0 mm 1 mps 741 mmHg 89%
    07:00 +19°C° 0 mm 1 mps 741 mmHg 84%
    08:00 +20°C° 0 mm 1 mps 741 mmHg 79%
    09:00 +20°C° 1 mm 1 mps 741 mmHg 82%
    10:00 +19°C° 1 mm 2 mps 741 mmHg 85%
    11:00 +19°C° 1 mm 2 mps 740 mmHg 88%
    12:00 +19°C° 0.9 mm 2 mps 740 mmHg 85%
    13:00 +19°C° 0.9 mm 2 mps 740 mmHg 81%
    14:00 +19°C° 0.9 mm 2 mps 740 mmHg 78%
    15:00 +20°C° 0.3 mm 1 mps 739 mmHg 74%
    16:00 +21°C° 0.3 mm 1 mps 739 mmHg 70%
    17:00 +21°C° 0.3 mm 1 mps 739 mmHg 66%
    18:00 +20°C° 0 mm 1 mps 739 mmHg 72%
    19:00 +18°C° 0 mm 1 mps 739 mmHg 77%
    20:00 +16°C° 0 mm 1 mps 738 mmHg 82%
    21:00 +15°C° 0 mm 2 mps 738 mmHg 85%
    22:00 +13°C° 0 mm 2 mps 738 mmHg 87%
    23:00 +12°C° 0 mm 2 mps 738 mmHg 90%

    26 May, Sunday

    Time Temperature Precipitation Wind Pressure Humidity
    00:00 +12°C° 0 mm 2 mps 738 mmHg 92%
    01:00 +10°C° 0 mm 2 mps 739 mmHg 95%
    02:00 +9°C° 0 mm 2 mps 739 mmHg 97%
    03:00 +9°C° 0 mm 2 mps 739 mmHg 97%
    04:00 +9°C° 0 mm 2 mps 739 mmHg 96%
    05:00 +9°C° 0 mm 3 mps 739 mmHg 95%
    06:00 +9°C° 0 mm 3 mps 739 mmHg 90%
    07:00 +10°C° 0 mm 3 mps 739 mmHg 85%
    08:00 +11°C° 0 mm 3 mps 739 mmHg 80%
    09:00 +11°C° 0 mm 3 mps 739 mmHg 76%
    10:00 +11°C° 0 mm 3 mps 739 mmHg 73%
    11:00 +12°C° 0 mm 3 mps 739 mmHg 69%
    12:00 +12°C° 0 mm 3 mps 739 mmHg 69%
    13:00 +13°C° 0 mm 3 mps 739 mmHg 68%
    14:00 +13°C° 0 mm 3 mps 738 mmHg 68%
    15:00 +13°C° 0.1 mm 3 mps 738 mmHg 70%
    16:00 +13°C° 0.1 mm 3 mps 738 mmHg 72%
    17:00 +13°C° 0.1 mm 3 mps 738 mmHg 75%
    18:00 +12°C° 0.1 mm 3 mps 737 mmHg 78%
    19:00 +12°C° 0.1 mm 3 mps 737 mmHg 81%
    20:00 +11°C° 0.1 mm 3 mps 737 mmHg 84%
    21:00 +10°C° 0.6 mm 3 mps 737 mmHg 88%
    22:00 +9°C° 0.6 mm 3 mps 737 mmHg 91%
    23:00 +8°C° 0.6 mm 3 mps 737 mmHg 95%

    27 May, Monday

    Time Temperature Precipitation Wind Pressure Humidity
    00:00 +7°C° 0.1 mm 3 mps 737 mmHg 95%
    01:00 +7°C° 0.1 mm 3 mps 737 mmHg 95%
    02:00 +5°C° 0.1 mm 3 mps 737 mmHg 96%
    03:00 +5°C° 0 mm 3 mps 737 mmHg 95%
    04:00 +4°C° 0 mm 3 mps 737 mmHg 95%
    05:00 +4°C° 0 mm 3 mps 737 mmHg 95%
    06:00 +5°C° 0 mm 3 mps 737 mmHg 93%
    07:00 +6°C° 0 mm 4 mps 738 mmHg 92%
    08:00 +7°C° 0 mm 4 mps 738 mmHg 90%
    09:00 +8°C° 0.1 mm 4 mps 739 mmHg 83%
    10:00 +11°C° 0.1 mm 4 mps 739 mmHg 77%
    11:00 +12°C° 0.1 mm 5 mps 740 mmHg 71%
    12:00 +13°C° 0 mm 4 mps 741 mmHg 68%
    13:00 +13°C° 0 mm 4 mps 741 mmHg 66%
    14:00 +14°C° 0 mm 4 mps 742 mmHg 63%
    15:00 +13°C° 0 mm 4 mps 742 mmHg 63%
    16:00 +13°C° 0 mm 3 mps 742 mmHg 64%
    17:00 +13°C° 0 mm 3 mps 742 mmHg 64%
    18:00 +12°C° 0 mm 3 mps 742 mmHg 71%
    19:00 +12°C° 0 mm 2 mps 743 mmHg 78%
    20:00 +10°C° 0 mm 2 mps 743 mmHg 85%
    21:00 +9°C° 0 mm 2 mps 743 mmHg 89%
    22:00 +8°C° 0 mm 2 mps 743 mmHg 92%
    23:00 +7°C° 0 mm 2 mps 743 mmHg 96%
    Show more